LU8ESQ Weather Reports


time (UTC)temp
C
wind
direction
speed
KPH
gust
KPH
rain 1hr
cm
rain 24hr
cm
rain mn
cm
humidity
%
barometer
mb
20260507223521 10 239 14.5 29.0 0.08 0.30 0.23 96 1000.5
20260507223018 10 243 14.5 25.7 0.08 0.30 0.23 96 1000.4
20260507222517 10 226 12.9 27.4 0.08 0.30 0.23 97 1000.3
20260507222035 10 227 11.3 30.6 0.08 0.30 0.23 98 1000.3
20260507221533 10 241 12.9 33.8 0.08 0.30 0.23 98 1000.3
20260507221031 10 240 11.3 25.7 0.08 0.30 0.23 98 1000.3
20260507220529 10 231 14.5 30.6 0.08 0.30 0.23 98 1000.1
20260507220028 10 241 12.9 29.0 0.08 0.28 0.23 98 1000.1
20260507215524 11 250 12.9 29.0 0.05 0.28 0.20 97 1000.0
20260507215023 11 227 12.9 35.4 0.03 0.25 0.18 97 1000.0
20260507214521 11 254 16.1 35.4 0.03 0.23 0.18 97 1000.0
20260507214018 11 254 12.9 27.4 0.00 0.23 0.15 96 1000.0
20260507213516 11 237 8.0 24.1 0.00 0.23 0.15 96 999.9
20260507213034 11 242 12.9 30.6 0.00 0.23 0.15 97 999.9
20260507212532 11 232 12.9 27.4 0.00 0.23 0.15 97 999.8
20260507212030 11 224 11.3 29.0 0.00 0.23 0.15 97 999.9
20260507211528 11 241 9.7 25.7 0.00 0.23 0.15 97 999.7
20260507211026 11 228 12.9 29.0 0.03 0.23 0.15 97 999.7
20260507210524 11 238 12.9 30.6 0.03 0.23 0.15 97 999.8
20260507210023 11 241 12.9 27.4 0.03 0.23 0.15 98 999.8
20260507205520 11 238 12.9 29.0 0.03 0.23 0.15 98 999.7
20260507205019 11 224 11.3 29.0 0.03 0.23 0.15 99 999.5
20260507204517 11 234 11.3 25.7 0.03 0.23 0.15 98 999.2
20260507204035 11 245 11.3 29.0 0.03 0.23 0.15 98 998.9
20260507203533 11 243 16.1 37.0 0.03 0.23 0.15 98 998.9
20260507203031 12 229 9.7 29.0 0.03 0.23 0.15 98 998.8
20260507202528 12 218 12.9 29.0 0.00 0.23 0.15 98 998.6
20260507202027 12 214 12.9 25.7 0.00 0.23 0.15 96 998.7
20260507201525 12 226 12.9 30.6 0.00 0.23 0.15 95 998.6
20260507201024 12 224 12.9 29.0 0.00 0.20 0.13 94 998.8
20260507200522 12 228 9.7 22.5 0.00 0.20 0.13 94 999.0
20260507200020 12 217 14.5 29.0 0.00 0.20 0.13 94 999.0
20260507195518 12 234 11.3 30.6 0.00 0.20 0.13 95 999.3
20260507195016 12 227 11.3 29.0 0.00 0.20 0.13 95 999.3
20260507194535 13 224 12.9 33.8 0.00 0.20 0.13 95 999.3
20260507194033 13 226 9.7 17.7 0.00 0.20 0.13 95 999.4
20260507193531 13 225 9.7 33.8 0.00 0.20 0.13 95 999.4
20260507193029 13 222 11.3 27.4 0.00 0.20 0.13 95 999.4
20260507192527 13 213 9.7 29.0 0.00 0.20 0.13 95 999.3
20260507192025 13 243 11.3 25.7 0.00 0.20 0.13 95 999.3
20260507191523 13 255 8.0 25.7 0.03 0.20 0.13 96 999.2
20260507191022 13 237 8.0 20.9 0.03 0.20 0.13 96 999.3
20260507190520 13 243 8.0 20.9 0.03 0.20 0.13 96 999.4
20260507190018 13 252 8.0 20.9 0.03 0.20 0.13 97 999.4
20260507185536 13 233 6.4 17.7 0.03 0.20 0.13 97 999.4
20260507185034 13 241 6.4 14.5 0.05 0.20 0.13 98 999.3
20260507184533 13 223 6.4 14.5 0.05 0.20 0.13 98 999.4
20260507184030 13 255 3.2 12.9 0.05 0.20 0.13 99 999.4
20260507183529 13 236 4.8 12.9 0.05 0.20 0.13 99 999.3
20260507183027 13 245 6.4 17.7 0.05 0.20 0.13 99 999.3
20260507182525 13 244 8.0 17.7 0.10 0.20 0.13 99 999.4
20260507182023 13 255 8.0 17.7 0.10 0.20 0.13 99 999.4
20260507181521 13 256 9.7 24.1 0.10 0.18 0.10 99 999.4
20260507181018 13 246 8.0 22.5 0.10 0.18 0.10 99 999.4
20260507180517 13 254 11.3 24.1 0.10 0.18 0.10 99 999.5
20260507180035 13 261 9.7 17.7 0.10 0.18 0.10 99 999.3
20260507175534 13 259 9.7 17.7 0.10 0.18 0.10 99 999.1
20260507175032 13 253 8.0 16.1 0.10 0.18 0.10 99 999.1
20260507174530 13 253 6.4 12.9 0.10 0.18 0.10 99 999.0
20260507174028 13 263 6.4 14.5 0.10 0.18 0.10 99 999.0
20260507173526 13 249 6.4 14.5 0.08 0.15 0.08 99 999.0
20260507173024 13 249 8.0 20.9 0.08 0.15 0.08 99 999.0
20260507172522 13 252 8.0 20.9 0.05 0.13 0.05 98 999.2
20260507172021 13 255 8.0 14.5 0.03 0.10 0.03 97 999.3
20260507171519 13 252 9.7 17.7 0.00 0.08 0.00 96 999.5
20260507171017 13 247 9.7 17.7 0.00 0.08 0.00 95 999.3
20260507170535 13 257 11.3 24.1 0.00 0.08 0.00 93 999.1
20260507170034 13 259 11.3 30.6 0.00 0.08 0.00 92 999.1
20260507165532 13 254 9.7 22.5 0.00 0.08 0.00 91 999.0
20260507165030 13 250 4.8 14.5 0.00 0.08 0.00 90 999.2
20260507164529 13 251 4.8 14.5 0.00 0.08 0.00 90 999.3
20260507164026 13 253 9.7 17.7 0.00 0.08 0.00 90 999.3
20260507163525 13 244 9.7 17.7 0.00 0.08 0.00 90 999.6
20260507163024 13 248 11.3 24.1 0.00 0.08 0.00 90 999.5
20260507162521 13 252 11.3 29.0 0.00 0.08 0.00 89 999.6
20260507162020 13 259 9.7 16.1 0.00 0.08 0.00 89 999.5
20260507161517 13 248 9.7 16.1 0.00 0.08 0.00 89 999.4
20260507161017 13 250 9.7 22.5 0.00 0.08 0.00 89 999.5
20260507160535 13 247 6.4 16.1 0.00 0.08 0.00 89 999.6
20260507160033 13 260 8.0 17.7 0.00 0.08 0.00 89 999.4
20260507155531 13 257 9.7 22.5 0.00 0.08 0.00 89 999.3
20260507155030 13 259 9.7 17.7 0.00 0.08 0.00 89 999.2
20260507154527 13 255 9.7 20.9 0.00 0.08 0.00 89 999.5
20260507154026 13 253 9.7 17.7 0.00 0.08 0.00 88 999.7
20260507153525 13 242 6.4 12.9 0.00 0.08 0.00 88 999.5
20260507153023 13 250 6.4 14.5 0.00 0.08 0.00 88 999.4
20260507152520 13 250 9.7 16.1 0.00 0.08 0.00 88 999.3
20260507152019 13 258 9.7 17.7 0.00 0.08 0.00 87 999.2
20260507151517 13 241 6.4 14.5 0.00 0.08 0.00 89 999.3
20260507151036 13 253 9.7 17.7 0.00 0.08 0.00 89 999.6
20260507150534 13 256 9.7 22.5 0.00 0.08 0.00 88 999.7
20260507150032 13 255 6.4 16.1 0.00 0.08 0.00 89 999.6
20260507145530 13 253 8.0 17.7 0.00 0.08 0.00 88 999.6
20260507145028 13 259 6.4 17.7 0.00 0.08 0.00 88 999.7
20260507144527 13 249 8.0 20.9 0.00 0.08 0.00 88 999.7
20260507144024 13 225 8.0 22.5 0.00 0.08 0.00 88 999.9
20260507143523 13 246 8.0 17.7 0.00 0.08 0.00 87 999.9
20260507143021 13 240 8.0 24.1 0.00 0.08 0.00 87 999.8
20260507142519 13 234 8.0 20.9 0.00 0.08 0.00 89 999.9
20260507142018 13 237 6.4 17.7 0.00 0.08 0.00 89 1000.1
20260507141517 13 247 8.0 25.7 0.00 0.08 0.00 90 999.9
20260507141035 12 244 11.3 30.6 0.00 0.08 0.00 90 999.8
20260507140533 12 253 9.7 22.5 0.00 0.08 0.00 90 999.7
20260507140031 12 257 9.7 20.9 0.00 0.08 0.00 90 999.7
20260507135529 12 259 11.3 24.1 0.00 0.08 0.00 89 999.7
20260507135027 12 254 9.7 27.4 0.00 0.08 0.00 89 999.7
20260507134526 12 249 8.0 24.1 0.00 0.08 0.00 89 999.4
20260507134023 12 256 9.7 22.5 0.00 0.08 0.00 89 999.1
20260507133523 12 247 11.3 24.1 0.00 0.08 0.00 89 998.9
20260507133021 12 256 8.0 20.9 0.00 0.08 0.00 89 999.0
20260507132518 12 239 11.3 24.1 0.00 0.08 0.00 90 998.9
20260507132017 12 255 14.5 30.6 0.00 0.08 0.00 91 998.9
20260507131536 12 237 8.0 20.9 0.00 0.08 0.00 92 999.0
20260507131034 11 260 8.0 25.7 0.00 0.08 0.00 92 998.9
20260507130532 11 259 11.3 24.1 0.00 0.08 0.00 92 998.8
20260507130030 11 264 14.5 27.4 0.00 0.08 0.00 92 999.1
20260507125528 11 247 12.9 29.0 0.00 0.08 0.00 92 999.1
20260507125026 11 257 14.5 29.0 0.00 0.08 0.00 92 999.1
20260507124524 12 252 14.5 37.0 0.00 0.08 0.00 91 999.3
20260507124022 12 253 12.9 29.0 0.00 0.08 0.00 91 999.5
20260507123520 12 255 14.5 25.7 0.00 0.08 0.00 91 999.6
20260507123018 12 256 9.7 20.9 0.00 0.08 0.00 91 999.8
20260507122516 12 254 8.0 17.7 0.00 0.08 0.00 91 999.7
20260507122035 12 256 14.5 25.7 0.00 0.08 0.00 91 999.9
20260507121534 12 250 14.5 27.4 0.00 0.08 0.00 91 1000.1
20260507121031 12 246 12.9 27.4 0.00 0.08 0.00 92 1000.4
20260507120530 12 240 12.9 30.6 0.00 0.08 0.00 93 1000.4
20260507120028 13 250 14.5 25.7 0.00 0.08 0.00 93 1000.5
20260507115526 13 256 11.3 37.0 0.00 0.08 0.00 94 1000.5
20260507115023 13 247 16.1 29.0 0.00 0.08 0.00 97 1000.4
20260507114522 13 264 11.3 20.9 0.00 0.08 0.00 99 1000.3
20260507114020 13 264 11.3 22.5 0.00 0.08 0.00 99 1000.0
20260507113518 13 246 11.3 20.9 0.00 0.08 0.00 99 999.6
20260507113036 13 259 11.3 25.7 0.00 0.08 0.00 99 999.8
20260507112534 13 249 6.4 14.5 0.00 0.08 0.00 99 999.8
20260507112032 12 252 4.8 14.5 0.00 0.08 0.00 99 999.7
20260507111530 12 259 6.4 20.9 0.00 0.08 0.00 99 999.6
20260507111028 12 245 6.4 16.1 0.00 0.08 0.00 99 999.4
20260507110526 12 246 6.4 16.1 0.00 0.08 0.00 99 999.5
20260507110023 12 245 4.8 12.9 0.00 0.08 0.00 99 999.5
20260507105522 12 233 4.8 12.9 0.00 0.08 0.00 99 999.8
20260507105021 12 250 6.4 16.1 0.00 0.08 0.00 99 999.9
20260507104518 12 249 4.8 12.9 0.00 0.08 0.00 99 1000.0
20260507104016 12 255 4.8 12.9 0.00 0.08 0.00 99 1000.0
20260507103535 12 233 4.8 11.3 0.00 0.08 0.00 99 1000.1
20260507103033 12 237 4.8 12.9 0.00 0.08 0.00 99 1000.0
20260507102530 12 255 6.4 14.5 0.00 0.08 0.00 99 1000.1
20260507102028 12 247 6.4 14.5 0.00 0.08 0.00 99 1000.2
20260507101527 12 253 6.4 14.5 0.00 0.08 0.00 99 1000.4
20260507101025 12 253 6.4 14.5 0.00 0.08 0.00 99 1000.6
20260507100523 12 241 4.8 12.9 0.00 0.08 0.00 99 1000.6
20260507100021 12 235 4.8 12.9 0.00 0.08 0.00 99 1000.7
20260507095520 12 231 4.8 14.5 0.00 0.08 0.00 99 1000.7
20260507095018 12 232 4.8 12.9 0.00 0.08 0.00 99 1000.6
20260507094516 12 242 6.4 11.3 0.00 0.08 0.00 99 1000.9
20260507094035 12 245 4.8 12.9 0.00 0.08 0.00 98 1000.8
20260507093533 12 240 4.8 11.3 0.00 0.08 0.00 98 1000.7
20260507093031 12 239 6.4 12.9 0.00 0.08 0.00 98 1000.7
20260507092529 12 231 4.8 11.3 0.00 0.08 0.00 98 1000.8
20260507092027 12 254 4.8 14.5 0.00 0.08 0.00 98 1000.8
20260507091525 12 253 6.4 12.9 0.00 0.08 0.00 98 1000.8
20260507091023 12 255 8.0 16.1 0.00 0.08 0.00 98 1001.0
20260507090522 12 248 8.0 16.1 0.00 0.08 0.00 98 1001.1
20260507090020 12 248 8.0 16.1 0.00 0.08 0.00 98 1001.4
20260507085519 12 245 6.4 16.1 0.00 0.08 0.00 98 1001.5
20260507085016 12 246 8.0 16.1 0.00 0.08 0.00 98 1001.3
20260507084535 12 254 9.7 16.1 0.00 0.08 0.00 99 1001.4
20260507084033 12 254 9.7 20.9 0.00 0.08 0.00 99 1001.2
20260507083531 12 234 6.4 16.1 0.00 0.08 0.00 99 1001.0
20260507083030 12 244 6.4 14.5 0.00 0.08 0.00 99 1001.0
20260507082528 12 256 9.7 20.9 0.00 0.08 0.00 99 1000.8
20260507082026 12 259 11.3 22.5 0.00 0.08 0.00 99 1000.8
20260507081524 12 258 11.3 17.7 0.00 0.08 0.00 99 1000.8
20260507081023 12 258 9.7 20.9 0.00 0.08 0.00 98 1000.6
20260507080520 12 254 9.7 16.1 0.00 0.08 0.00 98 1000.6
20260507080019 12 248 6.4 14.5 0.00 0.08 0.00 99 1000.7
20260507075517 12 242 6.4 14.5 0.00 0.08 0.00 99 1000.5
20260507075036 12 255 6.4 11.3 0.00 0.08 0.00 99 1000.7
20260507074534 12 259 6.4 12.9 0.00 0.08 0.00 99 1000.5
20260507074032 12 250 6.4 12.9 0.00 0.08 0.00 99 1000.4
20260507073530 12 249 8.0 14.5 0.00 0.08 0.00 99 1000.2
20260507073028 12 244 6.4 12.9 0.00 0.08 0.00 99 1000.3
20260507072527 12 248 4.8 9.7 0.00 0.08 0.00 99 1000.5
20260507072025 12 251 6.4 11.3 0.00 0.08 0.00 99 1000.8
20260507071528 12 248 4.8 12.9 0.00 0.08 0.00 99 1001.0
20260507071021 12 252 6.4 11.3 0.00 0.08 0.00 99 1001.3
20260507070519 12 248 6.4 11.3 0.00 0.08 0.00 99 1001.4
20260507070018 12 251 4.8 12.9 0.00 0.08 0.00 99 1001.4
20260507065516 12 250 8.0 16.1 0.00 0.08 0.00 99 1001.4
20260507065034 12 249 8.0 14.5 0.00 0.08 0.00 99 1001.2
20260507064533 12 259 6.4 12.9 0.00 0.08 0.00 99 1001.3
20260507064030 12 257 6.4 11.3 0.00 0.08 0.00 99 1001.1
20260507063529 12 252 3.2 9.7 0.00 0.08 0.00 99 1001.4
20260507063027 12 274 1.6 9.7 0.00 0.08 0.00 99 1001.7
20260507062525 12 271 3.2 4.8 0.00 0.08 0.00 99 1001.7
20260507062024 12 290 1.6 3.2 0.00 0.08 0.00 99 1001.7
20260507061521 12 264 0.0 1.6 0.00 0.08 0.00 99 1001.5
20260507061020 12 269 0.0 3.2 0.00 0.08 0.00 99 1001.4
20260507060518 12 269 0.0 4.8 0.00 0.08 0.00 99 1001.4
20260507060016 12 0.0 0.0 0.00 0.08 0.00 99 1001.4
20260507055534 12 0.0 0.0 0.00 0.08 0.00 99 1001.3
20260507055033 12 274 1.6 6.4 0.00 0.08 0.00 99 1001.1
20260507054531 12 264 1.6 6.4 0.00 0.08 0.00 99 1000.9
20260507054029 12 270 1.6 6.4 0.00 0.08 0.00 99 1000.6
20260507053527 12 266 0.0 4.8 0.00 0.08 0.00 99 1000.1
20260507053026 12 256 0.0 3.2 0.00 0.08 0.00 99 999.7
20260507052524 12 219 0.0 1.6 0.00 0.08 0.00 99 999.8
20260507052022 12 219 0.0 6.4 0.00 0.08 0.00 99 999.8
20260507051521 12 213 0.0 4.8 0.00 0.08 0.00 99 999.8
20260507051018 12 219 1.6 9.7 0.00 0.08 0.00 99 999.6
20260507050517 12 222 3.2 6.4 0.00 0.08 0.00 99 999.9
20260507050035 12 228 3.2 4.8 0.00 0.08 0.00 99 1000.0
20260507045534 12 217 3.2 11.3 0.00 0.08 0.00 99 1000.4
20260507045031 12 231 1.6 6.4 0.00 0.08 0.00 98 1000.8
20260507044530 13 251 1.6 9.7 0.00 0.08 0.00 98 1001.1
20260507044028 13 243 0.0 4.8 0.00 0.08 0.00 98 1001.1
20260507043526 13 236 1.6 9.7 0.00 0.08 0.00 98 1000.6
20260507043024 13 257 1.6 4.8 0.00 0.08 0.00 98 1000.5
20260507042523 13 243 1.6 6.4 0.00 0.08 0.00 98 1000.5
20260507042021 13 243 3.2 9.7 0.00 0.08 0.00 98 1000.4
20260507041519 13 229 4.8 12.9 0.00 0.08 0.00 98 1000.6
20260507041018 13 236 4.8 14.5 0.00 0.08 0.00 98 1000.6
20260507040536 13 212 11.3 25.7 0.00 0.08 0.00 98 1000.8
20260507040034 13 220 9.7 22.5 0.00 0.08 0.00 99 1000.9
20260507035532 13 240 8.0 22.5 0.00 0.08 0.00 99 1001.1
20260507035031 13 236 8.0 17.7 0.00 0.08 0.00 99 1001.0
20260507034529 13 242 8.0 16.1 0.00 0.08 0.00 98 1001.2
20260507034027 13 226 8.0 17.7 0.00 0.08 0.00 98 1001.4
20260507033525 13 242 6.4 20.9 0.00 0.08 0.00 98 1001.5
20260507033024 13 243 8.0 16.1 0.00 0.08 0.00 97 1001.8
20260507032522 13 241 8.0 24.1 0.00 0.08 0.00 97 1001.5
20260507032020 13 244 9.7 20.9 0.00 0.08 0.00 97 1001.2
20260507031518 13 233 11.3 24.1 0.00 0.08 0.00 96 1001.3
20260507031016 13 242 9.7 24.1 0.00 0.08 0.00 96 1001.5
20260507030534 13 244 6.4 16.1 0.00 0.08 0.00 96 1001.1
20260507030032 13 256 6.4 20.9 0.00 0.08 0.08 96 1001.2
20260507025531 13 253 14.5 25.7 0.00 0.08 0.08 95 1000.8
20260507025029 13 255 11.3 20.9 0.00 0.08 0.08 95 1000.4
20260507024527 13 246 6.4 16.1 0.00 0.08 0.08 94 1000.0
20260507024025 13 242 4.8 12.9 0.00 0.08 0.08 94 999.8
20260507023524 14 225 3.2 9.7 0.00 0.08 0.08 94 999.5
20260507023021 14 204 3.2 11.3 0.00 0.08 0.08 94 999.4
20260507022519 14 195 1.6 6.4 0.00 0.08 0.08 93 999.3
20260507022019 14 197 1.6 6.4 0.00 0.08 0.08 93 999.3
20260507021517 14 209 1.6 6.4 0.00 0.08 0.08 92 999.2
20260507021034 14 217 1.6 6.4 0.00 0.08 0.08 92 999.1
20260507020533 14 201 1.6 4.8 0.00 0.08 0.08 92 999.1
20260507020033 15 195 3.2 11.3 0.00 0.08 0.08 92 999.2
20260507015529 15 188 3.2 11.3 0.00 0.08 0.08 92 999.3
20260507015027 15 191 4.8 12.9 0.00 0.08 0.08 92 999.3
20260507014526 15 174 3.2 14.5 0.00 0.08 0.08 92 999.3
20260507014024 15 223 4.8 14.5 0.00 0.08 0.08 91 999.2
20260507013522 15 205 4.8 12.9 0.00 0.08 0.08 91 998.8
20260507012518 15 202 6.4 16.1 0.00 0.08 0.08 90 998.7
20260507012017 15 183 6.4 16.1 0.00 0.08 0.08 90 999.0
20260507011535 15 185 4.8 17.7 0.00 0.08 0.08 90 998.8
20260507011033 15 162 6.4 20.9 0.00 0.08 0.08 92 998.5
20260507010532 15 155 6.4 20.9 0.00 0.08 0.08 92 997.9
20260507010029 15 196 9.7 22.5 0.00 0.08 0.08 93 997.7
20260507005527 14 190 9.7 25.7 0.03 0.08 0.08 93 998.0
20260507005026 14 198 9.7 30.6 0.03 0.08 0.08 94 998.8
20260507004022 14 193 11.3 29.0 0.05 0.08 0.08 96 1000.0
20260507003520 14 211 14.5 37.0 0.05 0.08 0.08 96 1000.1
20260507003019 14 203 14.5 37.0 0.08 0.08 0.08 97 1000.3
20260507002517 14 209 14.5 33.8 0.08 0.08 0.08 97 1000.6
20260507002035 14 200 16.1 35.4 0.08 0.08 0.08 98 1001.3
20260507001533 13 202 14.5 29.0 0.08 0.08 0.08 98 1001.3
20260507001031 13 194 14.5 29.0 0.08 0.08 0.08 98 1001.3
20260507000529 14 212 19.3 43.5 0.05 0.08 0.08 98 1001.8
20260507000028 14 209 22.5 48.3 0.05 0.08 0.08 97 1002.8
20260506235526 14 217 22.5 53.1 0.05 0.05 0.05 97 1003.2
20260506235024 15 231 24.1 51.5 0.05 0.05 0.05 97 1003.0
20260506234522 15 223 20.9 43.5 0.03 0.05 0.05 98 1001.8
20260506234021 15 235 20.9 40.2 0.03 0.05 0.05 99 1001.9
20260506233519 15 239 11.3 29.0 0.03 0.03 0.03 98 1001.1
20260506233017 16 242 8.0 22.5 0.00 0.00 0.00 98 1000.4
20260506232535 16 239 11.3 20.9 0.00 0.00 0.00 98 1000.0
20260506232033 16 234 6.4 16.1 0.00 0.00 0.00 98 1000.0
20260506231532 16 214 6.4 17.7 0.00 0.00 0.00 98 999.9
20260506231030 16 208 3.2 14.5 0.00 0.00 0.00 98 999.6
20260506230527 16 87 6.4 17.7 0.00 0.00 0.00 98 999.1
20260506230027 16 98 6.4 14.5 0.00 0.00 0.00 98 998.8
20260506225524 16 93 8.0 14.5 0.00 0.00 0.00 98 998.3
20260506225022 16 86 1.6 6.4 0.00 0.00 0.00 98 998.3
20260506224521 16 132 1.6 4.8 0.00 0.00 0.00 98 998.5
20260506224018 16 182 3.2 9.7 0.00 0.00 0.00 97 998.5